Time,TemperatureF,DewpointF,PressureIn,WindDirection,WindDirectionDegrees,WindSpeedMPH,WindSpeedGustMPH,Humidity,HourlyPrecipIn,Conditions,Clouds,dailyrainin,SoftwareType,DateUTC
2013-05-12 00:01:00,74.2,49.0,29.96,SE,141,5.8,5.8,41,0.00,CLR,,0.00,WeatherDisplay:10.37,2013-05-12 07:01:00,
2013-05-12 00:06:00,74.8,48.2,29.95,SE,141,6.0,6.0,39,0.00,CLR,,0.00,WeatherDisplay:10.37,2013-05-12 07:06:00,
2013-05-12 00:11:00,74.7,47.4,29.95,SE,141,6.9,6.9,38,0.00,CLR,,0.00,WeatherDisplay:10.37,2013-05-12 07:11:00,
2013-05-12 00:16:00,74.6,47.3,29.95,SE,141,3.5,3.5,38,0.00,CLR,,0.00,WeatherDisplay:10.37,2013-05-12 07:16:00,
2013-05-12 00:21:00,74.1,46.9,29.96,SE,141,5.8,5.8,38,0.00,CLR,,0.00,WeatherDisplay:10.37,2013-05-12 07:21:00,
2013-05-12 00:26:00,73.9,47.4,29.96,SE,141,6.9,6.9,39,0.00,CLR,,0.00,WeatherDisplay:10.37,2013-05-12 07:26:00,
2013-05-12 00:31:00,74.4,47.1,29.96,SE,141,7.0,7.0,38,0.00,CLR,,0.00,WeatherDisplay:10.37,2013-05-12 07:31:00,
2013-05-12 00:36:00,74.6,47.3,29.95,SE,141,5.0,5.0,38,0.00,CLR,,0.00,WeatherDisplay:10.37,2013-05-12 07:36:00,
2013-05-12 00:41:00,74.1,46.9,29.96,SE,141,8.1,8.1,38,0.00,CLR,,0.00,WeatherDisplay:10.37,2013-05-12 07:41:00,
2013-05-12 00:46:00,73.9,45.3,29.96,SE,141,6.9,6.9,36,0.00,CLR,,0.00,WeatherDisplay:10.37,2013-05-12 07:46:00,
2013-05-12 00:51:00,74.2,45.5,29.96,SE,141,6.9,6.9,36,0.00,CLR,,0.00,WeatherDisplay:10.37,2013-05-12 07:51:00,
2013-05-12 00:56:00,74.6,45.1,29.96,SE,141,9.2,9.2,35,0.00,CLR,,0.00,WeatherDisplay:10.37,2013-05-12 07:56:00,
2013-05-12 01:01:00,74.8,44.5,29.95,SE,141,6.9,6.9,34,0.00,CLR,,0.00,WeatherDisplay:10.37,2013-05-12 08:01:00,
2013-05-12 01:06:00,75.1,44.0,29.95,SE,141,8.1,8.1,33,0.00,CLR,,0.00,WeatherDisplay:10.37,2013-05-12 08:06:00,
2013-05-12 01:11:00,75.4,43.5,29.96,SE,141,8.1,8.1,32,0.00,CLR,,0.00,WeatherDisplay:10.37,2013-05-12 08:11:00,
2013-05-12 01:16:00,74.8,43.8,29.96,SE,141,5.8,5.8,33,0.00,CLR,,0.00,WeatherDisplay:10.37,2013-05-12 08:16:00,
2013-05-12 01:21:00,73.1,43.1,29.96,SE,141,8.0,8.0,34,0.00,CLR,,0.00,WeatherDisplay:10.37,2013-05-12 08:21:00,
2013-05-12 01:26:00,72.8,42.8,29.96,SE,141,6.0,6.0,34,0.00,CLR,,0.00,WeatherDisplay:10.37,2013-05-12 08:26:00,
2013-05-12 01:31:00,73.0,43.0,29.96,SE,141,6.9,6.9,34,0.00,CLR,,0.00,WeatherDisplay:10.37,2013-05-12 08:31:00,
2013-05-12 01:36:00,73.6,43.5,29.96,SE,141,6.9,6.9,34,0.00,CLR,,0.00,WeatherDisplay:10.37,2013-05-12 08:36:00,
2013-05-12 01:41:00,73.5,43.4,29.96,SE,141,2.3,0.0,34,0.00,CLR,,0.00,WeatherDisplay:10.37,2013-05-12 08:41:00,
2013-05-12 01:46:00,72.6,42.6,29.97,SE,141,0.0,0.0,34,0.00,CLR,,0.00,WeatherDisplay:10.37,2013-05-12 08:46:00,
2013-05-12 01:51:00,71.9,42.8,29.96,SE,141,0.0,0.0,35,0.00,CLR,,0.00,WeatherDisplay:10.37,2013-05-12 08:51:00,
2013-05-12 01:56:00,72.2,43.8,29.96,SE,141,3.5,3.5,36,0.00,CLR,,0.00,WeatherDisplay:10.37,2013-05-12 08:56:00,
2013-05-12 02:01:00,72.2,44.5,29.96,SE,141,2.3,2.3,37,0.00,CLR,,0.00,WeatherDisplay:10.37,2013-05-12 09:01:00,
2013-05-12 02:06:00,72.1,44.4,29.96,SE,141,0.0,0.0,37,0.00,CLR,,0.00,WeatherDisplay:10.37,2013-05-12 09:06:00,
2013-05-12 02:11:00,72.0,45.7,29.96,SE,141,0.0,0.0,39,0.00,CLR,,0.00,WeatherDisplay:10.37,2013-05-12 09:11:00,
2013-05-12 02:16:00,71.8,45.5,29.96,SE,141,0.0,0.0,39,0.00,CLR,,0.00,WeatherDisplay:10.37,2013-05-12 09:16:00,
2013-05-12 02:21:00,71.7,45.4,29.95,SE,141,0.0,0.0,39,0.00,CLR,,0.00,WeatherDisplay:10.37,2013-05-12 09:21:00,
2013-05-12 02:26:00,71.3,44.4,29.95,SE,141,0.0,0.0,38,0.00,CLR,,0.00,WeatherDisplay:10.37,2013-05-12 09:26:00,
2013-05-12 02:31:00,70.7,44.5,29.95,SE,141,0.0,0.0,39,0.00,CLR,,0.00,WeatherDisplay:10.37,2013-05-12 09:31:00,
2013-05-12 02:36:00,69.4,44.0,29.96,SE,141,0.0,0.0,40,0.00,CLR,,0.00,WeatherDisplay:10.37,2013-05-12 09:36:00,
2013-05-12 02:41:00,68.7,44.0,29.96,SE,141,0.0,0.0,41,0.00,CLR,,0.00,WeatherDisplay:10.37,2013-05-12 09:41:00,
2013-05-12 02:46:00,68.8,44.8,29.96,SE,141,0.0,0.0,42,0.00,CLR,,0.00,WeatherDisplay:10.37,2013-05-12 09:46:00,
2013-05-12 02:51:00,69.1,45.0,29.95,SE,141,5.0,5.0,42,0.00,CLR,,0.00,WeatherDisplay:10.37,2013-05-12 09:51:00,
2013-05-12 02:56:00,68.7,44.7,29.96,SE,141,3.5,3.5,42,0.00,CLR,,0.00,WeatherDisplay:10.37,2013-05-12 09:56:00,
2013-05-12 03:01:00,67.8,44.5,29.96,SE,141,4.6,4.6,43,0.00,CLR,,0.00,WeatherDisplay:10.37,2013-05-12 10:01:00,
2013-05-12 03:06:00,67.2,44.5,29.96,SE,141,0.0,0.0,44,0.00,CLR,,0.00,WeatherDisplay:10.37,2013-05-12 10:06:00,
2013-05-12 03:11:00,66.6,45.2,29.96,SE,141,2.3,0.0,46,0.00,CLR,,0.00,WeatherDisplay:10.37,2013-05-12 10:11:00,
2013-05-12 03:16:00,66.3,45.5,29.96,SE,141,3.5,3.5,47,0.00,CLR,,0.00,WeatherDisplay:10.37,2013-05-12 10:16:00,
2013-05-12 03:21:00,66.7,45.8,29.96,SE,141,0.0,0.0,47,0.00,CLR,,0.00,WeatherDisplay:10.37,2013-05-12 10:21:00,
2013-05-12 03:26:00,66.2,45.4,29.96,SE,141,0.0,0.0,47,0.00,CLR,,0.00,WeatherDisplay:10.37,2013-05-12 10:26:00,
2013-05-12 03:31:00,65.3,45.1,29.97,ESE,107,6.9,6.9,48,0.00,CLR,,0.00,WeatherDisplay:10.37,2013-05-12 10:31:00,
2013-05-12 03:36:00,64.9,44.7,29.97,ESE,107,4.6,4.6,48,0.00,CLR,,0.00,WeatherDisplay:10.37,2013-05-12 10:36:00,
2013-05-12 03:41:00,64.6,45.0,29.97,ESE,107,3.5,3.5,49,0.00,CLR,,0.00,WeatherDisplay:10.37,2013-05-12 10:41:00,
2013-05-12 03:46:00,64.6,45.0,29.97,ESE,107,2.3,2.3,49,0.00,CLR,,0.00,WeatherDisplay:10.37,2013-05-12 10:46:00,
2013-05-12 03:51:00,64.6,45.0,29.97,NE,38,4.6,4.6,49,0.00,CLR,,0.00,WeatherDisplay:10.37,2013-05-12 10:51:00,
2013-05-12 03:56:00,64.5,44.9,29.97,NE,38,3.5,3.5,49,0.00,CLR,,0.00,WeatherDisplay:10.37,2013-05-12 10:56:00,
2013-05-12 04:01:00,64.4,44.8,29.97,NE,38,3.5,3.5,49,0.00,CLR,,0.00,WeatherDisplay:10.37,2013-05-12 11:01:00,
2013-05-12 04:06:00,64.3,44.7,29.97,NE,38,0.0,0.0,49,0.00,CLR,,0.00,WeatherDisplay:10.37,2013-05-12 11:06:00,
2013-05-12 04:11:00,64.2,45.2,29.97,NE,39,1.1,0.0,50,0.00,CLR,,0.00,WeatherDisplay:10.37,2013-05-12 11:11:00,
2013-05-12 04:16:00,64.1,45.1,29.97,NE,39,3.5,3.5,50,0.00,CLR,,0.00,WeatherDisplay:10.37,2013-05-12 11:16:00,
2013-05-12 04:21:00,64.1,45.1,29.97,NE,38,0.0,0.0,50,0.00,CLR,,0.00,WeatherDisplay:10.37,2013-05-12 11:21:00,
2013-05-12 04:26:00,64.0,45.0,29.97,NE,39,0.0,0.0,50,0.00,CLR,,0.00,WeatherDisplay:10.37,2013-05-12 11:26:00,
2013-05-12 04:31:00,63.9,45.4,29.97,NE,39,0.0,0.0,51,0.00,CLR,,0.00,WeatherDisplay:10.37,2013-05-12 11:31:00,
2013-05-12 04:36:00,64.0,45.5,29.97,NE,39,2.3,2.3,51,0.00,CLR,,0.00,WeatherDisplay:10.37,2013-05-12 11:36:00,
2013-05-12 04:41:00,64.0,45.5,29.97,NE,39,1.1,1.1,51,0.00,CLR,,0.00,WeatherDisplay:10.37,2013-05-12 11:41:00,
2013-05-12 04:46:00,63.9,45.4,29.97,NE,38,3.5,3.5,51,0.00,CLR,,0.00,WeatherDisplay:10.37,2013-05-12 11:46:00,
2013-05-12 04:51:00,63.9,45.4,29.97,NE,38,3.5,3.5,51,0.00,CLR,,0.00,WeatherDisplay:10.37,2013-05-12 11:51:00,
2013-05-12 04:56:00,63.8,45.3,29.97,NE,39,2.3,2.3,51,0.00,CLR,,0.00,WeatherDisplay:10.37,2013-05-12 11:56:00,
2013-05-12 05:01:00,63.8,45.3,29.97,NE,39,0.0,0.0,51,0.00,CLR,,0.00,WeatherDisplay:10.37,2013-05-12 12:01:00,
2013-05-12 05:06:00,63.6,45.1,29.97,NE,38,0.0,0.0,51,0.00,CLR,,0.00,WeatherDisplay:10.37,2013-05-12 12:06:00,
2013-05-12 05:11:00,63.5,45.0,29.97,NE,38,0.0,0.0,51,0.00,CLR,,0.00,WeatherDisplay:10.37,2013-05-12 12:11:00,
2013-05-12 05:16:00,63.6,45.1,29.97,NE,39,0.0,0.0,51,0.00,CLR,,0.00,WeatherDisplay:10.37,2013-05-12 12:16:00,
2013-05-12 05:21:00,63.8,45.3,29.97,NE,39,0.0,0.0,51,0.00,CLR,,0.00,WeatherDisplay:10.37,2013-05-12 12:21:00,
2013-05-12 05:26:00,63.8,45.8,29.98,NE,38,3.5,3.5,52,0.00,CLR,,0.00,WeatherDisplay:10.37,2013-05-12 12:26:00,
2013-05-12 05:31:00,63.9,45.4,29.98,NE,39,3.5,0.0,51,0.00,CLR,,0.00,WeatherDisplay:10.37,2013-05-12 12:31:00,
2013-05-12 05:36:00,63.8,45.8,29.98,NE,39,0.0,0.0,52,0.00,CLR,,0.00,WeatherDisplay:10.37,2013-05-12 12:36:00,
2013-05-12 05:41:00,63.8,45.8,29.98,NE,38,0.0,0.0,52,0.00,CLR,,0.00,WeatherDisplay:10.37,2013-05-12 12:41:00,
2013-05-12 05:46:00,63.8,45.8,29.98,NE,38,3.5,3.5,52,0.00,CLR,,0.00,WeatherDisplay:10.37,2013-05-12 12:46:00,
2013-05-12 05:51:00,63.9,45.9,29.99,NE,39,0.0,0.0,52,0.00,CLR,,0.00,WeatherDisplay:10.37,2013-05-12 12:51:00,
2013-05-12 05:56:00,63.8,45.8,29.99,NE,39,0.0,0.0,52,0.00,CLR,,0.00,WeatherDisplay:10.37,2013-05-12 12:56:00,
2013-05-12 06:01:00,64.0,46.0,30.00,NE,39,0.0,0.0,52,0.00,CLR,,0.00,WeatherDisplay:10.37,2013-05-12 13:01:00,
2013-05-12 06:06:00,64.0,46.5,30.00,NE,38,3.5,3.5,53,0.00,CLR,,0.00,WeatherDisplay:10.37,2013-05-12 13:06:00,
2013-05-12 06:11:00,64.1,46.6,30.00,NE,39,1.1,1.1,53,0.00,CLR,,0.00,WeatherDisplay:10.37,2013-05-12 13:11:00,
2013-05-12 06:16:00,64.2,46.7,30.00,NE,38,0.0,0.0,53,0.00,CLR,,0.00,WeatherDisplay:10.37,2013-05-12 13:16:00,
2013-05-12 06:21:00,64.4,46.9,30.00,NE,38,3.0,3.0,53,0.00,CLR,,0.00,WeatherDisplay:10.37,2013-05-12 13:21:00,
2013-05-12 06:26:00,64.6,47.1,30.00,NE,39,3.0,3.0,53,0.00,CLR,,0.00,WeatherDisplay:10.37,2013-05-12 13:26:00,
2013-05-12 06:31:00,64.7,47.2,30.01,NE,39,4.6,4.6,53,0.00,CLR,,0.00,WeatherDisplay:10.37,2013-05-12 13:31:00,
2013-05-12 06:36:00,64.8,46.8,30.01,NE,39,2.3,2.3,52,0.00,CLR,,0.00,WeatherDisplay:10.37,2013-05-12 13:36:00,
2013-05-12 06:41:00,64.9,46.8,30.01,NE,39,0.0,0.0,52,0.00,CLR,,0.00,WeatherDisplay:10.37,2013-05-12 13:41:00,
2013-05-12 06:46:00,65.1,47.0,30.01,NE,39,0.0,0.0,52,0.00,CLR,,0.00,WeatherDisplay:10.37,2013-05-12 13:46:00,
2013-05-12 06:51:00,65.4,47.3,30.01,NE,39,0.0,0.0,52,0.00,CLR,,0.00,WeatherDisplay:10.37,2013-05-12 13:51:00,
2013-05-12 06:56:00,65.9,47.8,30.00,NE,38,0.0,0.0,52,0.00,CLR,,0.00,WeatherDisplay:10.37,2013-05-12 13:56:00,
2013-05-12 07:01:00,66.6,47.9,30.01,NE,38,0.0,0.0,51,0.00,CLR,,0.00,WeatherDisplay:10.37,2013-05-12 14:01:00,
2013-05-12 07:06:00,67.3,48.5,30.01,NE,39,0.0,0.0,51,0.00,CLR,,0.00,WeatherDisplay:10.37,2013-05-12 14:06:00,
2013-05-12 07:11:00,67.9,48.6,30.01,NE,39,0.0,0.0,50,0.00,CLR,,0.00,WeatherDisplay:10.37,2013-05-12 14:11:00,
2013-05-12 07:16:00,68.6,48.7,30.00,NE,38,0.0,0.0,49,0.00,CLR,,0.00,WeatherDisplay:10.37,2013-05-12 14:16:00,
2013-05-12 07:21:00,69.0,49.0,30.00,NE,38,0.0,0.0,49,0.00,CLR,,0.00,WeatherDisplay:10.37,2013-05-12 14:21:00,
2013-05-12 07:26:00,69.7,49.1,30.00,NE,39,0.0,0.0,48,0.00,CLR,,0.00,WeatherDisplay:10.37,2013-05-12 14:26:00,
2013-05-12 07:31:00,70.6,49.4,30.00,NE,38,0.0,0.0,47,0.00,CLR,,0.00,WeatherDisplay:10.37,2013-05-12 14:31:00,
2013-05-12 07:36:00,71.5,50.2,30.00,NE,38,0.0,0.0,47,0.00,CLR,,0.00,WeatherDisplay:10.37,2013-05-12 14:36:00,
2013-05-12 07:41:00,72.3,50.4,30.00,NE,39,0.0,0.0,46,0.00,CLR,,0.00,WeatherDisplay:10.37,2013-05-12 14:41:00,
2013-05-12 07:46:00,73.1,50.5,30.00,NE,39,0.0,0.0,45,0.00,CLR,,0.00,WeatherDisplay:10.37,2013-05-12 14:46:00,
2013-05-12 07:51:00,73.8,51.1,30.00,NE,39,0.0,0.0,45,0.00,CLR,,0.00,WeatherDisplay:10.37,2013-05-12 14:51:00,
2013-05-12 07:56:00,74.5,51.2,30.00,NE,39,0.0,0.0,44,0.00,CLR,,0.00,WeatherDisplay:10.37,2013-05-12 14:56:00,
2013-05-12 08:01:00,74.8,51.4,30.01,NE,39,0.0,0.0,44,0.00,CLR,,0.00,WeatherDisplay:10.37,2013-05-12 15:01:00,
2013-05-12 08:06:00,74.9,52.1,30.01,NE,39,2.0,2.0,45,0.00,CLR,,0.00,WeatherDisplay:10.37,2013-05-12 15:06:00,
2013-05-12 08:11:00,74.9,52.1,30.01,North,11,3.5,3.5,45,0.00,CLR,,0.00,WeatherDisplay:10.37,2013-05-12 15:11:00,
2013-05-12 08:16:00,75.2,52.4,30.01,North,11,3.5,3.5,45,0.00,CLR,,0.00,WeatherDisplay:10.37,2013-05-12 15:16:00,
2013-05-12 08:21:00,75.7,52.2,30.00,North,11,3.5,3.5,44,0.00,CLR,,0.00,WeatherDisplay:10.37,2013-05-12 15:21:00,
2013-05-12 08:26:00,76.4,52.9,30.00,North,11,3.0,3.0,44,0.00,CLR,,0.00,WeatherDisplay:10.37,2013-05-12 15:26:00,
2013-05-12 08:31:00,77.2,53.0,30.00,North,349,0.0,0.0,43,0.00,CLR,,0.00,WeatherDisplay:10.37,2013-05-12 15:31:00,
2013-05-12 08:36:00,78.1,53.1,30.00,North,350,3.5,3.5,42,0.00,CLR,,0.00,WeatherDisplay:10.37,2013-05-12 15:36:00,
2013-05-12 08:41:00,78.9,53.2,30.00,NW,311,2.0,2.0,41,0.00,CLR,,0.00,WeatherDisplay:10.37,2013-05-12 15:41:00,
2013-05-12 08:46:00,79.8,52.6,29.99,West,279,3.5,3.5,39,0.00,CLR,,0.00,WeatherDisplay:10.37,2013-05-12 15:46:00,
2013-05-12 08:51:00,80.7,52.0,29.99,SSW,206,3.5,3.5,37,0.00,CLR,,0.00,WeatherDisplay:10.37,2013-05-12 15:51:00,
2013-05-12 08:56:00,81.3,51.8,29.99,SSW,206,3.5,3.5,36,0.00,CLR,,0.00,WeatherDisplay:10.37,2013-05-12 15:56:00,
2013-05-12 09:01:00,81.6,51.3,30.00,SSW,206,3.5,3.5,35,0.00,CLR,,0.00,WeatherDisplay:10.37,2013-05-12 16:01:00,
2013-05-12 09:06:00,81.9,51.6,30.00,SSW,206,3.5,3.5,35,0.00,CLR,,0.00,WeatherDisplay:10.37,2013-05-12 16:06:00,
2013-05-12 09:11:00,82.5,52.1,30.00,SSW,206,1.1,0.0,35,0.00,CLR,,0.00,WeatherDisplay:10.37,2013-05-12 16:11:00,
2013-05-12 09:16:00,83.0,51.7,30.00,SSW,206,0.0,0.0,34,0.00,CLR,,0.00,WeatherDisplay:10.37,2013-05-12 16:16:00,
2013-05-12 09:21:00,83.7,52.3,29.99,SSW,206,0.0,0.0,34,0.00,CLR,,0.00,WeatherDisplay:10.37,2013-05-12 16:21:00,
2013-05-12 09:26:00,84.5,52.2,29.99,SSW,206,3.0,3.0,33,0.00,CLR,,0.00,WeatherDisplay:10.37,2013-05-12 16:26:00,
2013-05-12 09:31:00,84.5,52.2,29.99,SSW,206,4.6,4.6,33,0.00,CLR,,0.00,WeatherDisplay:10.37,2013-05-12 16:31:00,
2013-05-12 09:36:00,84.5,52.2,29.99,SSW,206,5.8,5.8,33,0.00,CLR,,0.00,WeatherDisplay:10.37,2013-05-12 16:36:00,
2013-05-12 09:41:00,84.8,51.7,29.99,SSW,206,3.5,3.5,32,0.00,CLR,,0.00,WeatherDisplay:10.37,2013-05-12 16:41:00,
2013-05-12 09:46:00,85.4,52.2,29.99,SSW,206,3.5,3.5,32,0.00,CLR,,0.00,WeatherDisplay:10.37,2013-05-12 16:46:00,
2013-05-12 09:51:00,86.1,51.9,29.98,SSW,206,3.5,3.5,31,0.00,CLR,,0.00,WeatherDisplay:10.37,2013-05-12 16:51:00,
2013-05-12 09:56:00,86.8,52.5,29.98,SSW,206,4.6,4.6,31,0.00,CLR,,0.00,WeatherDisplay:10.37,2013-05-12 16:56:00,
2013-05-12 10:01:00,87.3,52.1,29.98,SSW,206,4.6,4.6,30,0.00,CLR,,0.00,WeatherDisplay:10.37,2013-05-12 17:01:00,
2013-05-12 10:06:00,87.2,52.0,29.98,SSW,206,4.0,4.0,30,0.00,CLR,,0.00,WeatherDisplay:10.37,2013-05-12 17:06:00,
2013-05-12 10:11:00,87.5,52.2,29.98,SSW,206,0.0,0.0,30,0.00,CLR,,0.00,WeatherDisplay:10.37,2013-05-12 17:11:00,
2013-05-12 10:16:00,87.7,52.4,29.98,SSW,206,3.5,3.5,30,0.00,CLR,,0.00,WeatherDisplay:10.37,2013-05-12 17:16:00,
2013-05-12 10:21:00,88.1,51.8,29.98,SSW,206,1.1,1.1,29,0.00,CLR,,0.00,WeatherDisplay:10.37,2013-05-12 17:21:00,
2013-05-12 10:26:00,89.0,51.7,29.98,SSW,206,4.6,4.6,28,0.00,CLR,,0.00,WeatherDisplay:10.37,2013-05-12 17:26:00,
2013-05-12 10:31:00,89.2,50.8,29.98,SSW,206,3.5,3.5,27,0.00,CLR,,0.00,WeatherDisplay:10.37,2013-05-12 17:31:00,
2013-05-12 10:36:00,89.5,50.1,29.97,SSW,206,0.0,0.0,26,0.00,CLR,,0.00,WeatherDisplay:10.37,2013-05-12 17:36:00,
2013-05-12 10:41:00,89.8,50.3,29.97,SSW,206,4.6,4.6,26,0.00,CLR,,0.00,WeatherDisplay:10.37,2013-05-12 17:41:00,
2013-05-12 10:46:00,90.0,50.5,29.97,SSW,206,0.0,0.1,26,0.00,CLR,,0.00,WeatherDisplay:10.37,2013-05-12 17:46:00,
2013-05-12 10:51:00,90.5,50.9,29.97,SSW,206,0.0,0.0,26,0.00,CLR,,0.00,WeatherDisplay:10.37,2013-05-12 17:51:00,
2013-05-12 10:56:00,90.4,49.8,29.97,SSW,206,0.0,0.0,25,0.00,CLR,,0.00,WeatherDisplay:10.37,2013-05-12 17:56:00,
2013-05-12 11:01:00,90.7,50.0,29.97,SSW,206,0.0,0.0,25,0.00,CLR,,0.00,WeatherDisplay:10.37,2013-05-12 18:01:00,
2013-05-12 11:06:00,91.4,50.6,29.97,ESE,120,6.9,6.9,25,0.00,CLR,,0.00,WeatherDisplay:10.37,2013-05-12 18:06:00,
2013-05-12 11:11:00,90.7,48.9,29.96,NE,48,6.9,6.9,24,0.00,CLR,,0.00,WeatherDisplay:10.37,2013-05-12 18:11:00,
2013-05-12 11:16:00,91.1,50.4,29.96,ESE,102,11.5,11.5,25,0.00,CLR,,0.00,WeatherDisplay:10.37,2013-05-12 18:16:00,
2013-05-12 11:21:00,91.2,49.4,29.96,ESE,102,11.5,11.5,24,0.00,CLR,,0.00,WeatherDisplay:10.37,2013-05-12 18:21:00,
2013-05-12 11:26:00,90.9,49.1,29.96,East,93,6.9,6.9,24,0.00,CLR,,0.00,WeatherDisplay:10.37,2013-05-12 18:26:00,
2013-05-12 11:31:00,91.0,49.2,29.96,SE,141,12.0,12.0,24,0.00,CLR,,0.00,WeatherDisplay:10.37,2013-05-12 18:31:00,
2013-05-12 11:36:00,90.6,48.9,29.96,SE,142,5.8,5.8,24,0.00,CLR,,0.00,WeatherDisplay:10.37,2013-05-12 18:36:00,
2013-05-12 11:41:00,90.8,47.9,29.96,SE,132,8.1,8.1,23,0.00,CLR,,0.00,WeatherDisplay:10.37,2013-05-12 18:41:00,
2013-05-12 11:46:00,90.6,48.9,29.96,East,95,2.3,2.3,24,0.00,CLR,,0.00,WeatherDisplay:10.37,2013-05-12 18:46:00,
2013-05-12 11:51:00,91.4,48.4,29.96,East,95,5.0,5.0,23,0.00,CLR,,0.00,WeatherDisplay:10.37,2013-05-12 18:51:00,
2013-05-12 11:56:00,92.1,47.8,29.95,East,95,3.5,3.5,22,0.00,CLR,,0.00,WeatherDisplay:10.37,2013-05-12 18:56:00,
2013-05-12 12:01:00,92.7,47.0,29.94,SW,214,9.2,9.2,21,0.00,CLR,,0.00,WeatherDisplay:10.37,2013-05-12 19:01:00,
2013-05-12 12:06:00,92.7,48.3,29.94,SE,125,8.0,8.0,22,0.00,CLR,,0.00,WeatherDisplay:10.37,2013-05-12 19:06:00,
2013-05-12 12:11:00,93.2,48.7,29.94,ENE,78,4.6,4.6,22,0.00,CLR,,0.00,WeatherDisplay:10.37,2013-05-12 19:11:00,
2013-05-12 12:16:00,92.7,44.4,29.94,NE,54,11.5,11.5,19,0.00,CLR,,0.00,WeatherDisplay:10.37,2013-05-12 19:16:00,
2013-05-12 12:21:00,91.8,45.0,29.95,East,79,9.2,9.2,20,0.00,CLR,,0.00,WeatherDisplay:10.37,2013-05-12 19:21:00,
2013-05-12 12:26:00,91.6,42.1,29.95,North,5,5.8,5.8,18,0.00,CLR,,0.00,WeatherDisplay:10.37,2013-05-12 19:26:00,
2013-05-12 12:31:00,92.5,41.3,29.95,ENE,75,6.9,6.9,17,0.00,CLR,,0.00,WeatherDisplay:10.37,2013-05-12 19:31:00,
2013-05-12 12:36:00,93.1,41.8,29.94,South,173,11.5,11.5,17,0.00,CLR,,0.00,WeatherDisplay:10.37,2013-05-12 19:36:00,
2013-05-12 12:41:00,93.1,41.8,29.93,South,175,10.4,10.4,17,0.00,CLR,,0.00,WeatherDisplay:10.37,2013-05-12 19:41:00,
2013-05-12 12:46:00,93.6,43.7,29.93,ESE,114,9.2,9.2,18,0.00,CLR,,0.00,WeatherDisplay:10.37,2013-05-12 19:46:00,
2013-05-12 12:51:00,93.8,42.4,29.93,SE,126,11.0,11.0,17,0.00,CLR,,0.00,WeatherDisplay:10.37,2013-05-12 19:51:00,
2013-05-12 12:56:00,92.9,40.1,29.93,SE,145,10.4,10.4,16,0.00,CLR,,0.00,WeatherDisplay:10.37,2013-05-12 19:56:00,
2013-05-12 13:01:00,92.7,38.3,29.94,NNE,28,6.9,6.9,15,0.00,CLR,,0.00,WeatherDisplay:10.37,2013-05-12 20:01:00,
2013-05-12 13:06:00,93.6,40.7,29.93,WSW,252,3.5,3.5,16,0.00,CLR,,0.00,WeatherDisplay:10.37,2013-05-12 20:06:00,
2013-05-12 13:11:00,93.8,40.8,29.93,WSW,252,4.6,4.6,16,0.00,CLR,,0.00,WeatherDisplay:10.37,2013-05-12 20:11:00,
2013-05-12 13:16:00,93.9,40.9,29.93,WSW,252,2.3,2.3,16,0.00,CLR,,0.00,WeatherDisplay:10.37,2013-05-12 20:16:00,
2013-05-12 13:21:00,94.7,39.9,29.92,ENE,73,4.0,4.0,15,0.00,CLR,,0.00,WeatherDisplay:10.37,2013-05-12 20:21:00,
2013-05-12 13:26:00,95.3,38.6,29.92,NNE,18,1.1,1.1,14,0.00,CLR,,0.00,WeatherDisplay:10.37,2013-05-12 20:26:00,
2013-05-12 13:31:00,95.4,40.4,29.92,East,88,10.4,10.4,15,0.00,CLR,,0.00,WeatherDisplay:10.37,2013-05-12 20:31:00,
2013-05-12 13:36:00,94.2,39.5,29.92,East,89,5.8,5.8,15,0.00,CLR,,0.00,WeatherDisplay:10.37,2013-05-12 20:36:00,
2013-05-12 13:41:00,94.2,39.5,29.92,East,79,10.4,10.4,15,0.00,CLR,,0.00,WeatherDisplay:10.37,2013-05-12 20:41:00,
2013-05-12 13:46:00,94.2,39.5,29.92,ENE,61,6.9,6.9,15,0.00,CLR,,0.00,WeatherDisplay:10.37,2013-05-12 20:46:00,
2013-05-12 13:51:00,94.6,39.8,29.92,North,351,8.1,8.1,15,0.00,CLR,,0.00,WeatherDisplay:10.37,2013-05-12 20:51:00,
2013-05-12 13:56:00,94.9,40.0,29.92,NNE,18,11.5,11.5,15,0.00,CLR,,0.00,WeatherDisplay:10.37,2013-05-12 20:56:00,
2013-05-12 14:01:00,94.8,39.9,29.92,ESE,105,13.8,13.8,15,0.00,CLR,,0.00,WeatherDisplay:10.37,2013-05-12 21:01:00,
2013-05-12 14:06:00,94.0,39.3,29.92,East,84,11.5,11.5,15,0.00,CLR,,0.00,WeatherDisplay:10.37,2013-05-12 21:06:00,
2013-05-12 14:11:00,93.9,40.9,29.92,East,93,12.7,12.7,16,0.00,CLR,,0.00,WeatherDisplay:10.37,2013-05-12 21:11:00,
2013-05-12 14:16:00,93.7,40.7,29.92,SSE,150,8.1,8.1,16,0.00,CLR,,0.00,WeatherDisplay:10.37,2013-05-12 21:16:00,
2013-05-12 14:21:00,94.3,41.2,29.91,SE,126,3.5,3.5,16,0.00,CLR,,0.00,WeatherDisplay:10.37,2013-05-12 21:21:00,
2013-05-12 14:26:00,94.6,39.8,29.91,South,175,12.7,12.7,15,0.00,CLR,,0.00,WeatherDisplay:10.37,2013-05-12 21:26:00,
2013-05-12 14:31:00,95.1,40.2,29.91,East,90,12.0,12.0,15,0.00,CLR,,0.00,WeatherDisplay:10.37,2013-05-12 21:31:00,
2013-05-12 14:36:00,94.2,39.5,29.91,NNE,24,4.6,4.6,15,0.00,CLR,,0.00,WeatherDisplay:10.37,2013-05-12 21:36:00,
2013-05-12 14:41:00,94.4,39.6,29.91,NNE,13,4.6,4.6,15,0.00,CLR,,0.00,WeatherDisplay:10.37,2013-05-12 21:41:00,
2013-05-12 14:46:00,94.5,37.9,29.90,NNE,33,10.0,10.0,14,0.00,CLR,,0.00,WeatherDisplay:10.37,2013-05-12 21:46:00,
2013-05-12 14:51:00,93.7,39.1,29.90,North,9,8.1,8.1,15,0.00,CLR,,0.00,WeatherDisplay:10.37,2013-05-12 21:51:00,
2013-05-12 14:56:00,93.7,39.1,29.90,ENE,71,4.0,4.0,15,0.00,CLR,,0.00,WeatherDisplay:10.37,2013-05-12 21:56:00,
2013-05-12 15:01:00,94.2,39.5,29.90,NNE,24,10.4,10.4,15,0.00,CLR,,0.00,WeatherDisplay:10.37,2013-05-12 22:01:00,
2013-05-12 15:06:00,94.6,39.8,29.90,SE,124,11.5,11.5,15,0.00,CLR,,0.00,WeatherDisplay:10.37,2013-05-12 22:06:00,
2013-05-12 15:11:00,95.2,40.3,29.90,SE,125,15.0,15.0,15,0.00,CLR,,0.00,WeatherDisplay:10.37,2013-05-12 22:11:00,
2013-05-12 15:16:00,95.4,38.6,29.90,ESE,109,14.0,14.0,14,0.00,CLR,,0.00,WeatherDisplay:10.37,2013-05-12 22:16:00,
2013-05-12 15:21:00,94.7,38.1,29.90,ENE,65,5.8,5.8,14,0.00,CLR,,0.00,WeatherDisplay:10.37,2013-05-12 22:21:00,
2013-05-12 15:26:00,94.8,38.2,29.89,ENE,66,3.5,0.0,14,0.00,CLR,,0.00,WeatherDisplay:10.37,2013-05-12 22:26:00,
2013-05-12 15:31:00,95.7,38.9,29.89,SSE,153,11.0,11.0,14,0.00,CLR,,0.00,WeatherDisplay:10.37,2013-05-12 22:31:00,
2013-05-12 15:36:00,95.4,38.6,29.89,SSE,155,5.8,5.8,14,0.00,CLR,,0.00,WeatherDisplay:10.37,2013-05-12 22:36:00,
2013-05-12 15:41:00,95.6,38.8,29.88,SSE,153,6.9,6.9,14,0.00,CLR,,0.00,WeatherDisplay:10.37,2013-05-12 22:41:00,
2013-05-12 15:46:00,96.3,39.4,29.88,ESE,103,3.5,3.5,14,0.00,CLR,,0.00,WeatherDisplay:10.37,2013-05-12 22:46:00,
2013-05-12 15:51:00,97.0,39.9,29.88,ESE,102,3.5,3.5,14,0.00,CLR,,0.00,WeatherDisplay:10.37,2013-05-12 22:51:00,
2013-05-12 15:56:00,97.3,40.1,29.87,East,98,3.0,3.0,14,0.00,CLR,,0.00,WeatherDisplay:10.37,2013-05-12 22:56:00,
2013-05-12 16:01:00,97.3,40.1,29.87,NE,53,3.5,3.5,14,0.00,CLR,,0.00,WeatherDisplay:10.37,2013-05-12 23:01:00,
2013-05-12 16:06:00,96.0,39.1,29.87,NE,53,5.8,5.8,14,0.00,CLR,,0.00,WeatherDisplay:10.37,2013-05-12 23:06:00,
2013-05-12 16:11:00,95.5,38.7,29.87,SE,142,8.0,8.0,14,0.00,CLR,,0.00,WeatherDisplay:10.37,2013-05-12 23:11:00,
2013-05-12 16:16:00,95.1,38.4,29.87,ESE,113,3.5,3.5,14,0.00,CLR,,0.00,WeatherDisplay:10.37,2013-05-12 23:16:00,
2013-05-12 16:21:00,95.3,38.6,29.87,ESE,113,4.6,4.6,14,0.00,CLR,,0.00,WeatherDisplay:10.37,2013-05-12 23:21:00,
2013-05-12 16:26:00,95.2,38.5,29.87,ESE,115,6.9,6.9,14,0.00,CLR,,0.00,WeatherDisplay:10.37,2013-05-12 23:26:00,
2013-05-12 16:31:00,95.9,39.0,29.86,ESE,115,0.0,0.0,14,0.00,CLR,,0.00,WeatherDisplay:10.37,2013-05-12 23:31:00,
2013-05-12 16:36:00,96.0,37.2,29.86,ESE,115,0.0,0.0,13,0.00,CLR,,0.00,WeatherDisplay:10.37,2013-05-12 23:36:00,
2013-05-12 16:41:00,95.8,39.0,29.86,ESE,115,5.8,5.8,14,0.00,CLR,,0.00,WeatherDisplay:10.37,2013-05-12 23:41:00,
2013-05-12 16:46:00,95.7,38.9,29.86,NNE,28,4.0,4.0,14,0.00,CLR,,0.00,WeatherDisplay:10.37,2013-05-12 23:46:00,
2013-05-12 16:51:00,96.3,39.4,29.86,North,360,0.0,0.0,14,0.00,CLR,,0.00,WeatherDisplay:10.37,2013-05-12 23:51:00,
2013-05-12 16:56:00,96.7,37.8,29.86,SSW,209,3.5,3.5,13,0.00,CLR,,0.00,WeatherDisplay:10.37,2013-05-12 23:56:00,
2013-05-12 17:01:00,97.2,40.1,29.85,SSW,209,2.3,2.3,14,0.00,CLR,,0.00,WeatherDisplay:10.37,2013-05-13 00:01:00,
2013-05-12 17:06:00,97.8,38.6,29.84,SSW,209,0.0,0.0,13,0.00,CLR,,0.00,WeatherDisplay:10.37,2013-05-13 00:06:00,
2013-05-12 17:11:00,97.8,38.6,29.84,SSW,209,3.5,3.5,13,0.00,CLR,,0.00,WeatherDisplay:10.37,2013-05-13 00:11:00,
2013-05-12 17:16:00,97.8,38.6,29.84,SSW,209,0.0,0.0,13,0.00,CLR,,0.00,WeatherDisplay:10.37,2013-05-13 00:16:00,
2013-05-12 17:21:00,96.8,37.8,29.84,NE,37,10.4,10.4,13,0.00,CLR,,0.00,WeatherDisplay:10.37,2013-05-13 00:21:00,
2013-05-12 17:27:00,96.2,39.3,29.84,NE,38,2.3,0.0,14,0.00,CLR,,0.00,WeatherDisplay:10.37,2013-05-13 00:27:00,
2013-05-12 17:32:00,96.6,39.6,29.84,SW,226,3.5,3.5,14,0.00,CLR,,0.00,WeatherDisplay:10.37,2013-05-13 00:32:00,
2013-05-12 17:37:00,97.0,41.7,29.84,SW,225,5.8,5.8,15,0.00,CLR,,0.00,WeatherDisplay:10.37,2013-05-13 00:37:00,
2013-05-12 17:42:00,96.2,44.3,29.84,SSW,211,10.4,10.4,17,0.00,CLR,,0.00,WeatherDisplay:10.37,2013-05-13 00:42:00,
2013-05-12 17:47:00,95.7,45.4,29.83,SSW,209,15.0,15.0,18,0.00,CLR,,0.00,WeatherDisplay:10.37,2013-05-13 00:47:00,
2013-05-12 17:52:00,94.7,44.6,29.84,SSW,209,11.5,11.5,18,0.00,CLR,,0.00,WeatherDisplay:10.37,2013-05-13 00:52:00,
2013-05-12 17:57:00,93.9,44.0,29.84,SSW,209,4.6,4.6,18,0.00,CLR,,0.00,WeatherDisplay:10.37,2013-05-13 00:57:00,
2013-05-12 18:02:00,93.4,43.6,29.83,SSW,209,6.9,6.9,18,0.00,CLR,,0.00,WeatherDisplay:10.37,2013-05-13 01:02:00,
2013-05-12 18:07:00,93.0,43.2,29.83,SSW,209,10.4,10.4,18,0.00,CLR,,0.00,WeatherDisplay:10.37,2013-05-13 01:07:00,
2013-05-12 18:12:00,92.8,43.1,29.83,SSW,209,10.4,10.4,18,0.00,CLR,,0.00,WeatherDisplay:10.37,2013-05-13 01:12:00,
2013-05-12 18:17:00,92.6,44.3,29.83,SSW,209,6.9,6.9,19,0.00,CLR,,0.00,WeatherDisplay:10.37,2013-05-13 01:17:00,
2013-05-12 18:22:00,92.8,47.1,29.83,SW,225,11.5,11.5,21,0.00,CLR,,0.00,WeatherDisplay:10.37,2013-05-13 01:22:00,
2013-05-12 18:27:00,93.0,47.3,29.83,SW,226,10.4,10.4,21,0.00,CLR,,0.00,WeatherDisplay:10.37,2013-05-13 01:27:00,
2013-05-12 18:32:00,92.5,49.3,29.83,NNW,327,16.1,16.1,23,0.00,CLR,,0.00,WeatherDisplay:10.37,2013-05-13 01:32:00,
2013-05-12 18:37:00,92.2,50.2,29.83,NNW,336,19.6,19.6,24,0.00,CLR,,0.00,WeatherDisplay:10.37,2013-05-13 01:37:00,
2013-05-12 18:42:00,91.3,50.5,29.83,NNW,348,20.7,20.7,25,0.00,CLR,,0.00,WeatherDisplay:10.37,2013-05-13 01:42:00,
2013-05-12 18:47:00,91.0,50.3,29.83,NW,310,24.2,24.2,25,0.00,CLR,,0.00,WeatherDisplay:10.37,2013-05-13 01:47:00,
2013-05-12 18:52:00,90.6,50.0,29.83,NW,322,19.6,19.6,25,0.00,CLR,,0.00,WeatherDisplay:10.37,2013-05-13 01:52:00,
2013-05-12 18:57:00,90.6,50.0,29.83,NW,318,17.3,17.3,25,0.00,CLR,,0.00,WeatherDisplay:10.37,2013-05-13 01:57:00,
2013-05-12 19:02:00,90.2,50.7,29.82,North,350,19.6,19.6,26,0.00,CLR,,0.00,WeatherDisplay:10.37,2013-05-13 02:02:00,
2013-05-12 19:07:00,90.0,50.5,29.83,NNW,327,18.4,18.4,26,0.00,CLR,,0.00,WeatherDisplay:10.37,2013-05-13 02:07:00,
2013-05-12 19:12:00,89.7,50.3,29.83,West,270,12.0,12.0,26,0.00,CLR,,0.00,WeatherDisplay:10.37,2013-05-13 02:12:00,
2013-05-12 19:17:00,89.5,50.1,29.83,WSW,251,11.5,11.5,26,0.00,CLR,,0.00,WeatherDisplay:10.37,2013-05-13 02:17:00,
2013-05-12 19:22:00,89.3,49.9,29.83,WSW,251,16.1,16.1,26,0.00,CLR,,0.00,WeatherDisplay:10.37,2013-05-13 02:22:00,
2013-05-12 19:27:00,88.8,50.5,29.83,WSW,250,16.1,16.1,27,0.00,CLR,,0.00,WeatherDisplay:10.37,2013-05-13 02:27:00,
2013-05-12 19:32:00,88.5,50.3,29.84,WSW,251,13.8,13.8,27,0.00,CLR,,0.00,WeatherDisplay:10.37,2013-05-13 02:32:00,
2013-05-12 19:37:00,88.2,49.0,29.84,WSW,251,18.4,18.4,26,0.00,CLR,,0.00,WeatherDisplay:10.37,2013-05-13 02:37:00,
2013-05-12 19:42:00,87.9,48.7,29.84,WSW,250,16.1,16.1,26,0.00,CLR,,0.00,WeatherDisplay:10.37,2013-05-13 02:42:00,
2013-05-12 19:47:00,87.6,48.5,29.84,WSW,252,15.0,15.0,26,0.00,CLR,,0.00,WeatherDisplay:10.37,2013-05-13 02:47:00,
2013-05-12 19:52:00,87.3,49.2,29.84,WSW,252,11.5,11.5,27,0.00,CLR,,0.00,WeatherDisplay:10.37,2013-05-13 02:52:00,
2013-05-12 19:57:00,87.1,49.1,29.84,WSW,252,12.7,12.7,27,0.00,CLR,,0.00,WeatherDisplay:10.37,2013-05-13 02:57:00,
2013-05-12 20:02:00,86.7,48.7,29.83,WSW,252,13.0,13.0,27,0.00,CLR,,0.00,WeatherDisplay:10.37,2013-05-13 03:02:00,
2013-05-12 20:07:00,86.3,49.4,29.83,WSW,252,15.0,15.0,28,0.00,CLR,,0.00,WeatherDisplay:10.37,2013-05-13 03:07:00,
2013-05-12 20:12:00,86.2,49.3,29.84,WSW,252,13.8,13.8,28,0.00,CLR,,0.00,WeatherDisplay:10.37,2013-05-13 03:12:00,
2013-05-12 20:17:00,86.2,49.3,29.84,WSW,252,19.6,19.6,28,0.00,CLR,,0.00,WeatherDisplay:10.37,2013-05-13 03:17:00,
2013-05-12 20:22:00,86.3,49.4,29.84,WSW,252,15.0,15.0,28,0.00,CLR,,0.00,WeatherDisplay:10.37,2013-05-13 03:22:00,
2013-05-12 20:27:00,86.1,49.2,29.84,WSW,252,15.0,15.0,28,0.00,CLR,,0.00,WeatherDisplay:10.37,2013-05-13 03:27:00,
2013-05-12 20:32:00,86.0,49.1,29.84,WSW,252,11.5,11.5,28,0.00,CLR,,0.00,WeatherDisplay:10.37,2013-05-13 03:32:00,
2013-05-12 20:37:00,85.6,48.8,29.84,WSW,252,13.8,13.8,28,0.00,CLR,,0.00,WeatherDisplay:10.37,2013-05-13 03:37:00,
2013-05-12 20:42:00,85.3,48.5,29.85,WSW,252,13.8,13.8,28,0.00,CLR,,0.00,WeatherDisplay:10.37,2013-05-13 03:42:00,
2013-05-12 20:47:00,85.1,48.3,29.85,WSW,252,11.5,11.5,28,0.00,CLR,,0.00,WeatherDisplay:10.37,2013-05-13 03:47:00,
2013-05-12 20:52:00,85.2,48.4,29.85,WSW,252,11.5,11.5,28,0.00,CLR,,0.00,WeatherDisplay:10.37,2013-05-13 03:52:00,
2013-05-12 20:57:00,85.1,48.3,29.85,WSW,252,13.0,13.0,28,0.00,CLR,,0.00,WeatherDisplay:10.37,2013-05-13 03:57:00,
2013-05-12 21:01:00,85.1,48.3,29.84,WSW,252,18.4,18.4,28,0.00,CLR,,0.00,WeatherDisplay:10.37,2013-05-13 04:01:00,
2013-05-12 21:02:00,85.1,48.3,29.84,WSW,252,12.7,12.7,28,0.00,CLR,,0.00,WeatherDisplay:10.37,2013-05-13 04:02:00,
2013-05-12 21:04:00,85.1,48.3,29.84,WSW,252,13.8,13.8,28,0.00,CLR,,0.00,WeatherDisplay:10.37,2013-05-13 04:04:00,
2013-05-12 21:09:00,84.7,48.0,29.84,WSW,252,11.5,11.5,28,0.00,CLR,,0.00,WeatherDisplay:10.37,2013-05-13 04:09:00,
2013-05-12 21:14:00,84.5,47.8,29.84,WSW,252,11.5,11.5,28,0.00,CLR,,0.00,WeatherDisplay:10.37,2013-05-13 04:14:00,
2013-05-12 21:19:00,84.4,47.7,29.84,WSW,252,5.8,6.0,28,0.00,CLR,,0.00,WeatherDisplay:10.37,2013-05-13 04:19:00,
2013-05-12 21:24:00,84.5,47.8,29.84,WSW,257,17.3,17.3,28,0.00,CLR,,0.00,WeatherDisplay:10.37,2013-05-13 04:24:00,
2013-05-12 21:29:00,84.9,47.2,29.84,WSW,258,18.4,18.4,27,0.00,CLR,,0.00,WeatherDisplay:10.37,2013-05-13 04:29:00,
2013-05-12 21:34:00,85.1,47.4,29.84,NNW,329,20.7,20.7,27,0.00,CLR,,0.00,WeatherDisplay:10.37,2013-05-13 04:34:00,
2013-05-12 21:39:00,85.0,47.3,29.84,NW,310,16.1,16.1,27,0.00,CLR,,0.00,WeatherDisplay:10.37,2013-05-13 04:39:00,
2013-05-12 21:44:00,85.0,47.3,29.84,WNW,290,12.7,12.7,27,0.00,CLR,,0.00,WeatherDisplay:10.37,2013-05-13 04:44:00,
2013-05-12 21:49:00,84.8,47.1,29.85,WSW,252,12.7,12.7,27,0.00,CLR,,0.00,WeatherDisplay:10.37,2013-05-13 04:49:00,
2013-05-12 21:54:00,84.8,47.1,29.85,WSW,253,13.0,13.0,27,0.00,CLR,,0.00,WeatherDisplay:10.37,2013-05-13 04:54:00,
2013-05-12 21:59:00,84.5,47.8,29.85,WSW,253,13.8,13.8,28,0.00,CLR,,0.00,WeatherDisplay:10.37,2013-05-13 04:59:00,
2013-05-12 22:04:00,83.6,47.0,29.85,WSW,253,9.2,9.2,28,0.00,CLR,,0.00,WeatherDisplay:10.37,2013-05-13 05:04:00,
2013-05-12 22:09:00,81.7,47.2,29.85,WSW,253,11.5,11.5,30,0.00,CLR,,0.00,WeatherDisplay:10.37,2013-05-13 05:09:00,
2013-05-12 22:14:00,80.8,47.3,29.85,WSW,253,10.0,10.0,31,0.00,CLR,,0.00,WeatherDisplay:10.37,2013-05-13 05:14:00,
2013-05-12 22:19:00,80.1,46.7,27.59,WSW,253,9.2,9.2,31,0.00,CLR,,0.00,WeatherDisplay:10.37,2013-05-13 05:19:00,
2013-05-12 22:24:00,80.1,46.7,29.92,WSW,253,10.4,10.4,31,0.00,CLR,,0.00,WeatherDisplay:10.37,2013-05-13 05:24:00,
2013-05-12 22:29:00,80.2,46.8,29.92,WSW,253,6.9,6.9,31,0.00,CLR,,0.00,WeatherDisplay:10.37,2013-05-13 05:29:00,
2013-05-12 22:34:00,80.0,45.8,29.92,SW,231,7.0,7.5,30,0.00,CLR,,0.00,WeatherDisplay:10.37,2013-05-13 05:34:00,
2013-05-12 22:39:00,80.5,44.4,29.92,SW,230,11.5,11.5,28,0.00,CLR,,0.00,WeatherDisplay:10.37,2013-05-13 05:39:00,
2013-05-12 22:44:00,81.1,44.9,29.92,SW,219,10.4,10.4,28,0.00,CLR,,0.00,WeatherDisplay:10.37,2013-05-13 05:44:00,
2013-05-12 22:49:00,81.2,45.0,29.92,SW,219,10.4,10.4,28,0.00,CLR,,0.00,WeatherDisplay:10.37,2013-05-13 05:49:00,
2013-05-12 22:54:00,80.8,43.7,29.92,SW,219,12.7,12.7,27,0.00,CLR,,0.00,WeatherDisplay:10.37,2013-05-13 05:54:00,
2013-05-12 22:59:00,80.6,43.5,29.92,SW,219,10.4,10.4,27,0.00,CLR,,0.00,WeatherDisplay:10.37,2013-05-13 05:59:00,
2013-05-12 23:04:00,80.7,43.6,29.92,SW,219,9.2,9.2,27,0.00,CLR,,0.00,WeatherDisplay:10.37,2013-05-13 06:04:00,
2013-05-12 23:09:00,80.7,43.6,29.92,SW,219,8.0,8.0,27,0.00,CLR,,0.00,WeatherDisplay:10.37,2013-05-13 06:09:00,
2013-05-12 23:14:00,80.6,44.5,29.92,SW,219,9.2,9.2,28,0.00,CLR,,0.00,WeatherDisplay:10.37,2013-05-13 06:14:00,
2013-05-12 23:19:00,80.0,44.0,29.92,SW,219,7.0,7.0,28,0.00,CLR,,0.00,WeatherDisplay:10.37,2013-05-13 06:19:00,
2013-05-12 23:24:00,79.8,42.8,29.92,SW,219,8.1,8.1,27,0.00,CLR,,0.00,WeatherDisplay:10.37,2013-05-13 06:24:00,
2013-05-12 23:29:00,79.7,42.8,29.92,SW,219,11.5,11.5,27,0.00,CLR,,0.00,WeatherDisplay:10.37,2013-05-13 06:29:00,
2013-05-12 23:34:00,79.7,43.7,29.92,SW,219,5.0,5.0,28,0.00,CLR,,0.00,WeatherDisplay:10.37,2013-05-13 06:34:00,
2013-05-12 23:39:00,80.0,43.0,29.92,SW,219,9.2,9.2,27,0.00,CLR,,0.00,WeatherDisplay:10.37,2013-05-13 06:39:00,
2013-05-12 23:44:00,80.2,42.2,29.92,SW,219,6.9,6.9,26,0.00,CLR,,0.00,WeatherDisplay:10.37,2013-05-13 06:44:00,
2013-05-12 23:49:00,79.7,41.8,29.92,SW,219,5.8,5.8,26,0.00,CLR,,0.00,WeatherDisplay:10.37,2013-05-13 06:49:00,
2013-05-12 23:54:00,79.5,41.6,29.92,SW,219,0.0,0.0,26,0.00,CLR,,0.00,WeatherDisplay:10.37,2013-05-13 06:54:00,
2013-05-12 23:59:00,79.6,41.7,29.92,SW,219,4.0,4.7,26,0.00,CLR,,0.00,WeatherDisplay:10.37,2013-05-13 06:59:00,